Location: İstanbul
(41.0082°N, 28.9784°E)
Time: 21:29:57
(UTC+03:00)

ITUPSAT 1 - Pass Details

Date: 02 May 2024
Orbit: 694 x 707 km, 98.5° (Epoch: 29 May)

Event Time Altitude Azimuth Distance (km) Brightness Sun altitude
Rises 23:55:34 0° 3° (N) 3,082 ? -31.6°
Reaches altitude 10° 23:58:00 10° 353° (N) 2,160 ? -31.7°
Enters shadow 00:01:44 31° 302° (WNW) 1,212 ? -31.9°
